Location: Iwkowa
(49.8210°N, 20.5761°E)
Time: 00:35:53
(UTC+01:00)

ISS - Pass Details

Date: 02 February 2019
Orbit: 403 x 411 km, 51.6° (Epoch: 17 February)

Event Time Altitude Azimuth Distance (km) Brightness Sun altitude
Rises 19:41:46 0° 288° (WNW) 2,341 1.2 -30.4°
Reaches altitude 10° 19:43:54 10° 282° (WNW) 1,479 -0.1 -30.7°
Enters shadow 19:44:18 13° 280° (W) 1,325 -0.4 -30.8°
